Bedford Park, IL

8:43 PM CST on February 09, 2016 (GMT -0600)
Chicago-Midway

Weather History for KMDW - April, 2013

Change the Weather History Date:

Saturday, April 20, 2013

  Actual Average Record
Temperature  
Mean Temperature 38 °F 52 °F  
Max Temperature 46 °F 61 °F 87 °F (1987)
Min Temperature 30 °F 43 °F 27 °F (1983)
Degree Days  
Heating Degree Days 27 13  
Month to date heating degree days 398 335  
Since 1 July heating degree days 5513 5658  
Cooling Degree Days 0 1  
Month to date cooling degree days 0 2  
Year to date cooling degree days 0 3  
Moisture  
Dew Point 21 °F    
Average Humidity 52    
Maximum Humidity 82    
Minimum Humidity 20    
Precipitation  
Precipitation T in 0.12 in 1.27 in (2000)
Month to date precipitation 5.84 2.39  
Year to date precipitation 11.35 9.11  
Sea Level Pressure  
Sea Level Pressure 30.23 in    
Wind  
Wind Speed 10 mph (NW)    
Max Wind Speed 21 mph    
Max Gust Speed 25 mph    
Visibility 10 miles    
Events Snow    
T = Trace of Precipitation, MM = Missing Value Source: NWS Daily Summary

Daily Weather History Graph

Daily Weather History Graph

Search for Another Location

Airport or City:

Trip Planner

Search our weather history database for the weather conditions in past years. The results will help you decide how hot, cold, wet, or windy it might be!

Date:

Astronomy

Apr. 20, 2013 Rise Set
Actual Time 6:02 AM CDT 7:37 PM CDT
Civil Twilight 5:33 AM CDT 8:07 PM CDT
Nautical Twilight 4:58 AM CDT 8:42 PM CDT
Astronomical Twilight 4:20 AM CDT 9:20 PM CDT
Moon 2:16 PM CDT (4/20) 2:56 AM CDT (4/20)
Length of Visible Light 14h 33m
Length of Day
13h 34m
Waxing Gibbous, 71% of the Moon is Illuminated
Apr 20
Waxing Gibbous
Apr 25
Full
May 2
Last Quarter
May 9
New
May 17
First Quarter

Hourly Weather History & Observations

Time (CDT) Temp. Windchill Dew Point Humidity Pressure Visibility Wind Dir Wind Speed Gust Speed Precip Events Conditions
12:40 AM 33.8 °F 24.8 °F 28.4 °F 81% 29.94 in 4.0 mi NNW 12.7 mph - 0.00 in Snow Light Snow
12:51 AM 33.1 °F 21.9 °F 28.0 °F 82% 29.97 in 4.0 mi WNW 18.4 mph 23.0 mph 0.00 in Snow Light Snow
1:18 AM 33.8 °F 24.8 °F 24.8 °F 70% 29.95 in 10.0 mi WNW 12.7 mph 20.7 mph 0.00 in   Mostly Cloudy
1:51 AM 34.0 °F 25.5 °F 24.1 °F 67% 29.99 in 10.0 mi WNW 11.5 mph - 0.00 in   Scattered Clouds
2:51 AM 34.0 °F 25.5 °F 24.1 °F 67% 30.02 in 10.0 mi WNW 11.5 mph - N/A   Scattered Clouds
3:51 AM 32.0 °F 24.8 °F 21.9 °F 66% 30.04 in 10.0 mi WNW 8.1 mph - N/A   Scattered Clouds
4:51 AM 32.0 °F 22.5 °F 19.9 °F 61% 30.08 in 10.0 mi NW 12.7 mph - N/A   Partly Cloudy
5:51 AM 30.9 °F 24.3 °F 19.9 °F 64% 30.12 in 10.0 mi WNW 6.9 mph - N/A   Partly Cloudy
6:51 AM 30.9 °F 23.5 °F 18.0 °F 59% 30.15 in 10.0 mi WNW 8.1 mph - N/A   Partly Cloudy
7:51 AM 33.1 °F 23.9 °F 18.0 °F 54% 30.19 in 10.0 mi NW 12.7 mph - N/A   Partly Cloudy
8:51 AM 35.1 °F 27.4 °F 19.0 °F 52% 30.22 in 10.0 mi NW 10.4 mph - N/A   Partly Cloudy
9:51 AM 37.0 °F 28.5 °F 18.0 °F 46% 30.24 in 10.0 mi West 13.8 mph 20.7 mph N/A   Partly Cloudy
10:51 AM 39.0 °F 32.3 °F 15.1 °F 38% 30.27 in 10.0 mi WNW 10.4 mph - N/A   Partly Cloudy
11:51 AM 42.1 °F 35.2 °F 16.0 °F 35% 30.28 in 10.0 mi West 12.7 mph 19.6 mph N/A   Scattered Clouds
12:51 PM 43.0 °F 36.0 °F 16.0 °F 34% 30.30 in 10.0 mi WNW 13.8 mph 23.0 mph N/A   Mostly Cloudy
1:51 PM 44.1 °F 38.1 °F 17.1 °F 34% 30.31 in 10.0 mi West 11.5 mph 18.4 mph N/A   Mostly Cloudy
2:51 PM 44.1 °F 38.6 °F 17.1 °F 34% 30.32 in 10.0 mi WNW 10.4 mph 17.3 mph N/A   Mostly Cloudy
3:51 PM 45.0 °F 40.1 °F 17.1 °F 33% 30.33 in 10.0 mi NNW 9.2 mph - N/A   Mostly Cloudy
4:51 PM 42.1 °F 34.9 °F 19.9 °F 41% 30.34 in 10.0 mi ENE 13.8 mph - N/A   Mostly Cloudy
5:51 PM 39.9 °F 32.9 °F 21.0 °F 47% 30.36 in 10.0 mi East 11.5 mph - N/A   Mostly Cloudy
6:51 PM 37.9 °F 30.5 °F 21.0 °F 51% 30.38 in 10.0 mi East 11.5 mph - N/A   Partly Cloudy
7:51 PM 37.9 °F 30.9 °F 21.0 °F 51% 30.39 in 10.0 mi East 10.4 mph - N/A   Scattered Clouds
8:51 PM 37.0 °F 31.0 °F 21.9 °F 54% 30.42 in 10.0 mi East 8.1 mph - N/A   Partly Cloudy
9:51 PM 37.0 °F 31.6 °F 24.1 °F 59% 30.45 in 10.0 mi East 6.9 mph - N/A   Clear
10:51 PM 36.0 °F 30.3 °F 23.0 °F 59% 30.45 in 10.0 mi ESE 6.9 mph - N/A   Clear
11:51 PM 36.0 °F 31.1 °F 21.9 °F 57% 30.46 in 10.0 mi East 5.8 mph - N/A   Clear